QPF
0.04 0.06 0.07 0.07 0.07 0.05 0.04 0.03 0.02 0.02 0.01 0.02 0.01 0.01 0.00 0.01 0.01 0.01 0.01 0.01 0.00 0.00 0.00 0.00 0.00 0.00 0.00 0.00 0.00 0.00 0.00 0.00 0.00 0.00 0.00 0.00 0.00 0.00 0.00 0.00 0.00 0.00 0.00 0.00
0.05 0.05 0.05 0.06 0.07 0.06 0.04 0.03 0.02 0.02 0.02 0.02 0.01 0.00 0.00 0.00 0.01 0.01 0.01 0.01 0.00 0.00 0.00 0.00 0.00 0.00 0.00 0.00 0.00 0.00 0.00 0.00 0.00 0.00 0.00 0.00 0.00 0.00 0.00 0.00 0.00 0.00 0.00 0.01
0.04 0.04 0.04 0.04 0.05 0.05 0.03 0.02 0.01 0.02 0.02 0.02 0.01 0.00 0.00 0.00 0.00 0.00 0.00 0.00 0.00 0.00 0.00 0.00 0.00 0.00 0.00 0.00 0.00 0.00 0.00 0.00 0.00 0.00 0.00 0.00 0.00 0.00 0.00 0.00 0.00 0.00 0.01 0.01
0.05 0.03 0.03 0.04 0.03 0.03 0.03 0.01 0.02 0.02 0.02 0.01 0.01 0.00 0.00 0.00 0.00 0.00 0.00 0.00 0.00 0.00 0.00 0.00 0.00 0.00 0.00 0.00 0.00 0.00 0.00 0.00 0.00 0.00 0.00 0.00 0.00 0.00 0.00 0.00 0.00 0.00 0.01 0.01
0.02 0.02 0.02 0.02 0.02 0.02 0.03 0.02 0.02 0.02 0.02 0.01 0.00 0.00 0.00 0.00 0.00 0.00 0.00 0.00 0.00 0.00 0.00 0.00 0.00 0.00 0.00 0.00 0.00 0.00 0.00 0.00 0.00 0.00 0.00 0.00 0.01 0.01 0.01 0.01 0.00 0.01 0.01 0.01
0.04 0.03 0.03 0.02 0.02 0.03 0.03 0.03 0.02 0.01 0.01 0.00 0.00 0.00 0.00 0.00 0.00 0.00 0.00 0.00 0.00 0.00 0.00 0.00 0.00 0.00 0.00 0.00 0.00 0.00 0.00 0.00 0.00 0.00 0.00 0.00 0.01 0.01 0.01 0.01 0.01 0.01 0.02 0.02
0.05 0.05 0.03 0.03 0.04 0.03 0.03 0.02 0.01 0.00 0.00 0.00 0.00 0.00 0.00 0.00 0.00 0.00 0.00 0.00 0.00 0.00 0.00 0.00 0.00 0.00 0.00 0.00 0.00 0.00 0.00 0.00 0.00 0.00 0.00 0.00 0.00 0.01 0.00 0.01 0.01 0.01 0.01 0.01
0.04 0.03 0.02 0.02 0.02 0.02 0.01 0.01 0.00 0.00 0.00 0.00 0.00 0.00 0.00 0.00 0.00 0.00 0.00 0.00 0.00 0.00 0.00 0.00 0.00 0.00 0.00 0.00 0.00 0.00 0.00 0.00 0.00 0.00 0.00 0.00 0.00 0.00 0.00 0.00 0.00 0.00 0.01 0.01
0.02 0.01 0.01 0.02 0.01 0.02 0.01 0.00 0.00 0.00 0.00 0.00 0.00 0.00 0.00 0.00 0.00 0.00 0.00 0.00 0.00 0.00 0.00 0.00 0.00 0.00 0.00 0.00 0.00 0.00 0.00 0.00 0.00 0.00 0.00 0.00 0.00 0.00 0.00 0.00 0.00 0.00 0.00 0.01
0.02 0.01 0.01 0.01 0.01 0.01 0.00 0.00 0.00 0.00 0.00 0.00 0.00 0.00 0.00 0.00 0.00 0.00 0.00 0.00 0.00 0.00 0.00 0.00 0.00 0.00 0.00 0.00 0.00 0.00 0.00 0.00 0.00 0.00 0.00 0.00 0.00 0.00 0.00 0.00 0.00 0.00 0.01 0.01
0.01 0.01 0.01 0.01 0.00 0.00 0.00 0.00 0.00 0.00 0.00 0.00 0.00 0.00 0.00 0.00 0.00 0.00 0.00 0.00 0.00 0.00 0.00 0.00 0.00 0.00 0.00 0.00 0.00 0.00 0.00 0.00 0.00 0.00 0.00 0.00 0.00 0.00 0.00 0.00 0.00 0.00 0.01 0.00
0.01 0.01 0.01 0.00 0.00 0.00 0.00 0.00 0.00 0.00 0.00 0.00 0.00 0.00 0.00 0.00 0.00 0.00 0.00 0.00 0.00 0.00 0.00 0.00 0.00 0.00 0.00 0.00 0.00 0.00 0.00 0.00 0.00 0.00 0.00 0.00 0.00 0.00 0.00 0.00 0.00 0.00 0.01 0.00
0.01 0.01 0.00 0.00 0.00 0.00 0.00 0.00 0.00 0.00 0.00 0.00 0.00 0.00 0.00 0.00 0.00 0.00 0.00 0.00 0.00 0.00 0.00 0.00 0.00 0.00 0.00 0.00 0.00 0.00 0.00 0.00 0.00 0.00 0.00 0.00 0.00 0.00 0.00 0.00 0.00 0.00 0.01 0.01
0.01 0.01 0.00 0.00 0.00 0.00 0.00 0.00 0.00 0.00 0.00 0.00 0.00 0.00 0.00 0.00 0.00 0.00 0.00 0.00 0.00 0.00 0.00 0.00 0.00 0.00 0.00 0.00 0.00 0.00 0.00 0.00 0.00 0.00 0.00 0.00 0.00 0.00 0.00 0.00 0.00 0.00 0.00 0.01
0.00 0.00 0.00 0.00 0.00 0.00 0.00 0.00 0.00 0.00 0.00 0.00 0.00 0.00 0.00 0.00 0.00 0.00 0.00 0.00 0.00 0.00 0.00 0.00 0.00 0.00 0.00 0.00 0.00 0.00 0.00 0.00 0.00 0.00 0.00 0.00 0.00 0.00 0.00 0.00 0.00 0.00 0.00 0.01
0.00 0.00 0.00 0.00 0.00 0.00 0.00 0.00 0.00 0.00 0.00 0.00 0.00 0.00 0.00 0.00 0.00 0.00 0.00 0.00 0.00 0.00 0.00 0.00 0.00 0.00 0.00 0.00 0.00 0.00 0.00 0.00 0.00 0.00 0.00 0.00 0.00 0.00 0.00 0.00 0.00 0.00 0.00 0.00
0.00 0.00 0.00 0.00 0.00 0.00 0.00 0.00 0.00 0.00 0.00 0.00 0.00 0.00 0.00 0.00 0.00 0.00 0.00 0.00 0.00 0.00 0.00 0.00 0.00 0.00 0.00 0.00 0.00 0.00 0.00 0.00 0.00 0.00 0.00 0.00 0.00 0.00 0.00 0.00 0.00 0.00 0.00 0.00
0.00 0.00 0.00 0.00 0.00 0.00 0.00 0.00 0.00 0.00 0.00 0.00 0.00 0.00 0.00 0.00 0.00 0.00 0.00 0.00 0.00 0.00 0.00 0.00 0.00 0.00 0.00 0.00 0.00 0.00 0.00 0.00 0.00 0.00 0.00 0.00 0.00 0.00 0.00 0.00 0.00 0.00 0.00 0.00
0.00 0.00 0.00 0.00 0.00 0.00 0.00 0.00 0.00 0.00 0.00 0.00 0.00 0.00 0.00 0.00 0.00 0.00 0.00 0.00 0.00 0.00 0.00 0.00 0.00 0.00 0.00 0.00 0.00 0.00 0.00 0.00 0.00 0.00 0.00 0.00 0.00 0.00 0.00 0.00 0.00 0.00 0.00 0.00
0.00 0.00 0.00 0.00 0.00 0.00 0.00 0.00 0.00 0.00 0.00 0.00 0.00 0.00 0.00 0.00 0.00 0.00 0.00 0.00 0.00 0.00 0.00 0.00 0.00 0.00 0.00 0.00 0.00 0.00 0.00 0.00 0.00 0.00 0.00 0.00 0.00 0.00 0.00 0.00 0.00 0.00 0.00 0.00
0.00 0.00 0.00 0.00 0.00 0.00 0.00 0.00 0.00 0.00 0.00 0.00 0.00 0.00 0.00 0.00 0.00 0.00 0.00 0.00 0.00 0.00 0.00 0.00 0.00 0.00 0.00 0.00 0.00 0.00 0.00 0.00 0.00 0.00 0.00 0.00 0.00 0.00 0.00 0.00 0.00 0.00 0.00 0.00
0.00 0.00 0.00 0.00 0.00 0.00 0.00 0.00 0.00 0.00 0.00 0.00 0.00 0.00 0.00 0.00 0.00 0.00 0.00 0.00 0.00 0.00 0.00 0.00 0.00 0.00 0.00 0.00 0.00 0.00 0.00 0.00 0.00 0.00 0.00 0.00 0.00 0.00 0.00 0.00 0.00 0.00 0.00 0.00
0.00 0.00 0.00 0.00 0.00 0.00 0.00 0.00 0.00 0.00 0.00 0.00 0.00 0.00 0.00 0.00 0.00 0.00 0.00 0.00 0.00 0.00 0.00 0.00 0.00 0.00 0.00 0.00 0.00 0.00 0.00 0.00 0.00 0.00 0.00 0.00 0.00 0.00 0.00 0.00 0.00 0.00 0.00 0.00
0.00 0.00 0.00 0.00 0.00 0.00 0.00 0.00 0.00 0.00 0.00 0.00 0.00 0.00 0.00 0.00 0.00 0.00 0.00 0.00 0.00 0.00 0.00 0.00 0.00 0.00 0.00 0.00 0.00 0.00 0.00 0.00 0.00 0.00 0.00 0.00 0.00 0.00 0.00 0.00 0.00 0.00 0.00 0.00
0.00 0.00 0.00 0.00 0.00 0.00 0.00 0.00 0.00 0.00 0.00 0.00 0.00 0.00 0.00 0.00 0.00 0.00 0.00 0.00 0.00 0.00 0.00 0.00 0.00 0.00 0.00 0.00 0.00 0.00 0.00 0.00 0.00 0.00 0.00 0.00 0.00 0.00 0.00 0.00 0.00 0.00 0.00 0.00
0.00 0.00 0.00 0.00 0.00 0.00 0.00 0.00 0.00 0.00 0.00 0.00 0.00 0.00 0.00 0.00 0.00 0.00 0.00 0.00 0.00 0.00 0.00 0.00 0.00 0.00 0.00 0.00 0.00 0.00 0.00 0.00 0.00 0.00 0.00 0.00 0.00 0.00 0.00 0.00 0.00 0.00 0.00 0.00
MSLP
1012.04 1013.19 1014.16 1014.88 1015.34 1015.58 1015.65 1015.62 1015.55 1015.48 1015.41 1015.35 1015.27 1015.16 1015.01 1014.82 1014.61 1014.43 1014.28 1014.21 1014.21 1014.28 1014.40 1014.51 1014.61 1014.67 1014.69 1014.67 1014.65 1014.65 1014.69 1014.77 1014.88 1014.99 1015.06 1015.08 1015.00 1014.83 1014.58 1014.27 1013.96 1013.67 1013.43 1013.26
1012.66 1013.63 1014.41 1014.95 1015.29 1015.46 1015.54 1015.57 1015.60 1015.64 1015.68 1015.69 1015.64 1015.51 1015.30 1015.02 1014.73 1014.47 1014.28 1014.19 1014.21 1014.31 1014.46 1014.62 1014.73 1014.80 1014.80 1014.77 1014.72 1014.71 1014.75 1014.85 1014.99 1015.15 1015.26 1015.30 1015.24 1015.05 1014.77 1014.41 1014.04 1013.70 1013.42 1013.22
1013.10 1013.86 1014.43 1014.82 1015.06 1015.22 1015.36 1015.50 1015.68 1015.87 1016.03 1016.12 1016.08 1015.92 1015.62 1015.24 1014.84 1014.49 1014.24 1014.13 1014.15 1014.29 1014.48 1014.68 1014.83 1014.91 1014.92 1014.86 1014.80 1014.77 1014.81 1014.92 1015.08 1015.27 1015.43 1015.50 1015.45 1015.27 1014.97 1014.59 1014.18 1013.80 1013.48 1013.25
1013.34 1013.88 1014.26 1014.52 1014.71 1014.91 1015.16 1015.48 1015.84 1016.21 1016.50 1016.66 1016.63 1016.40 1016.00 1015.49 1014.96 1014.49 1014.16 1014.01 1014.03 1014.20 1014.44 1014.70 1014.89 1015.00 1015.01 1014.96 1014.88 1014.82 1014.84 1014.95 1015.13 1015.34 1015.53 1015.64 1015.63 1015.47 1015.18 1014.80 1014.37 1013.96 1013.61 1013.35
1013.41 1013.72 1013.94 1014.11 1014.32 1014.61 1015.02 1015.55 1016.13 1016.68 1017.12 1017.33 1017.29 1016.98 1016.44 1015.77 1015.07 1014.46 1014.03 1013.82 1013.84 1014.03 1014.33 1014.64 1014.90 1015.05 1015.08 1015.03 1014.93 1014.86 1014.85 1014.95 1015.12 1015.34 1015.56 1015.71 1015.74 1015.62 1015.36 1015.00 1014.59 1014.18 1013.82 1013.54
1013.37 1013.49 1013.57 1013.70 1013.96 1014.39 1015.00 1015.75 1016.56 1017.30 1017.85 1018.11 1018.02 1017.60 1016.91 1016.05 1015.17 1014.40 1013.85 1013.58 1013.58 1013.80 1014.15 1014.53 1014.85 1015.05 1015.11 1015.07 1014.96 1014.87 1014.84 1014.90 1015.06 1015.28 1015.51 1015.69 1015.77 1015.71 1015.50 1015.19 1014.81 1014.42 1014.07 1013.79
1013.31 1013.25 1013.25 1013.38 1013.71 1014.30 1015.11 1016.09 1017.10 1017.99 1018.63 1018.90 1018.75 1018.20 1017.34 1016.29 1015.23 1014.30 1013.64 1013.30 1013.28 1013.51 1013.91 1014.36 1014.74 1015.00 1015.10 1015.08 1014.97 1014.85 1014.79 1014.82 1014.95 1015.16 1015.40 1015.61 1015.72 1015.72 1015.58 1015.32 1015.00 1014.65 1014.32 1014.06
1013.27 1013.10 1013.04 1013.19 1013.63 1014.36 1015.36 1016.51 1017.67 1018.67 1019.35 1019.60 1019.37 1018.69 1017.66 1016.44 1015.22 1014.16 1013.40 1012.99 1012.95 1013.20 1013.64 1014.14 1014.59 1014.90 1015.05 1015.04 1014.94 1014.81 1014.72 1014.72 1014.82 1015.01 1015.24 1015.46 1015.61 1015.65 1015.57 1015.38 1015.11 1014.82 1014.53 1014.30
1013.28 1013.04 1012.97 1013.17 1013.70 1014.55 1015.67 1016.94 1018.19 1019.23 1019.90 1020.09 1019.77 1018.97 1017.81 1016.46 1015.11 1013.96 1013.13 1012.68 1012.63 1012.89 1013.36 1013.90 1014.40 1014.76 1014.94 1014.97 1014.88 1014.74 1014.63 1014.60 1014.67 1014.83 1015.05 1015.27 1015.44 1015.51 1015.48 1015.35 1015.14 1014.90 1014.67 1014.47
1013.32 1013.08 1013.04 1013.29 1013.89 1014.81 1015.99 1017.30 1018.55 1019.55 1020.16 1020.27 1019.86 1018.96 1017.72 1016.29 1014.89 1013.70 1012.84 1012.39 1012.33 1012.60 1013.08 1013.65 1014.17 1014.56 1014.78 1014.84 1014.77 1014.64 1014.53 1014.48 1014.53 1014.66 1014.85 1015.06 1015.23 1015.32 1015.33 1015.24 1015.08 1014.90 1014.71 1014.55
1013.37 1013.18 1013.20 1013.51 1014.14 1015.08 1016.24 1017.49 1018.65 1019.55 1020.05 1020.06 1019.56 1018.61 1017.34 1015.92 1014.54 1013.37 1012.54 1012.11 1012.06 1012.33 1012.81 1013.37 1013.90 1014.31 1014.55 1014.63 1014.59 1014.49 1014.39 1014.35 1014.38 1014.50 1014.67 1014.85 1015.01 1015.11 1015.13 1015.07 1014.95 1014.80 1014.65 1014.53
1013.40 1013.31 1013.41 1013.76 1014.40 1015.30 1016.36 1017.47 1018.47 1019.20 1019.56 1019.45 1018.89 1017.93 1016.69 1015.34 1014.05 1012.98 1012.22 1011.84 1011.81 1012.07 1012.53 1013.07 1013.57 1013.97 1014.23 1014.34 1014.34 1014.28 1014.22 1014.20 1014.24 1014.35 1014.50 1014.67 1014.81 1014.90 1014.92 1014.87 1014.78 1014.66 1014.54 1014.45
1013.41 1013.44 1013.64 1014.03 1014.64 1015.43 1016.33 1017.24 1018.01 1018.53 1018.71 1018.49 1017.88 1016.95 1015.81 1014.59 1013.45 1012.51 1011.87 1011.55 1011.55 1011.80 1012.22 1012.71 1013.17 1013.54 1013.80 1013.94 1013.99 1013.99 1013.99 1014.01 1014.09 1014.21 1014.36 1014.51 1014.63 1014.70 1014.72 1014.68 1014.60 1014.50 1014.41 1014.33
1013.44 1013.61 1013.89 1014.29 1014.84 1015.48 1016.17 1016.82 1017.32 1017.60 1017.59 1017.26 1016.62 1015.75 1014.73 1013.69 1012.74 1011.97 1011.46 1011.22 1011.25 1011.48 1011.84 1012.26 1012.67 1013.01 1013.26 1013.43 1013.54 1013.61 1013.69 1013.78 1013.91 1014.06 1014.22 1014.36 1014.47 1014.53 1014.54 1014.50 1014.44 1014.36 1014.29 1014.23
1013.54 1013.84 1014.17 1014.57 1015.01 1015.48 1015.92 1016.28 1016.49 1016.51 1016.30 1015.86 1015.21 1014.42 1013.55 1012.69 1011.94 1011.36 1010.99 1010.83 1010.87 1011.07 1011.37 1011.72 1012.06 1012.36 1012.61 1012.82 1012.99 1013.15 1013.32 1013.50 1013.69 1013.89 1014.07 1014.22 1014.33 1014.38 1014.39 1014.36 1014.31 1014.25 1014.20 1014.15
1013.79 1014.16 1014.52 1014.86 1015.18 1015.43 1015.61 1015.67 1015.60 1015.36 1014.96 1014.42 1013.77 1013.04 1012.32 1011.65 1011.09 1010.68 1010.44 1010.35 1010.41 1010.57 1010.81 1011.08 1011.36 1011.63 1011.88 1012.13 1012.38 1012.63 1012.90 1013.17 1013.44 1013.69 1013.90 1014.07 1014.18 1014.24 1014.25 1014.24 1014.20 1014.17 1014.13 1014.10
1014.20 1014.59 1014.92 1015.17 1015.33 1015.36 1015.28 1015.06 1014.71 1014.24 1013.67 1013.04 1012.38 1011.73 1011.13 1010.62 1010.23 1009.97 1009.82 1009.79 1009.85 1009.98 1010.16 1010.37 1010.60 1010.84 1011.11 1011.40 1011.73 1012.07 1012.44 1012.80 1013.14 1013.44 1013.69 1013.88 1014.01 1014.08 1014.10 1014.11 1014.10 1014.09 1014.07 1014.05
1014.73 1015.08 1015.34 1015.46 1015.44 1015.25 1014.92 1014.44 1013.86 1013.19 1012.49 1011.78 1011.12 1010.53 1010.04 1009.66 1009.40 1009.24 1009.18 1009.18 1009.24 1009.34 1009.47 1009.62 1009.82 1010.06 1010.35 1010.69 1011.09 1011.52 1011.96 1012.40 1012.80 1013.15 1013.43 1013.64 1013.78 1013.86 1013.91 1013.94 1013.96 1013.97 1013.98 1013.97
1015.31 1015.55 1015.68 1015.64 1015.43 1015.05 1014.51 1013.83 1013.06 1012.25 1011.45 1010.70 1010.05 1009.51 1009.10 1008.82 1008.64 1008.56 1008.54 1008.56 1008.61 1008.68 1008.78 1008.91 1009.09 1009.34 1009.65 1010.04 1010.50 1010.99 1011.50 1011.99 1012.43 1012.80 1013.10 1013.32 1013.47 1013.57 1013.64 1013.69 1013.74 1013.78 1013.80 1013.80
1015.78 1015.87 1015.83 1015.63 1015.25 1014.70 1014.00 1013.18 1012.30 1011.40 1010.56 1009.80 1009.17 1008.67 1008.32 1008.11 1007.99 1007.95 1007.95 1007.98 1008.02 1008.07 1008.15 1008.27 1008.45 1008.71 1009.06 1009.48 1009.98 1010.51 1011.05 1011.56 1012.01 1012.39 1012.69 1012.91 1013.06 1013.18 1013.26 1013.34 1013.42 1013.48 1013.52 1013.52
1016.00 1015.92 1015.71 1015.34 1014.82 1014.15 1013.35 1012.46 1011.54 1010.63 1009.79 1009.05 1008.46 1008.01 1007.71 1007.53 1007.45 1007.42 1007.44 1007.46 1007.49 1007.54 1007.61 1007.74 1007.93 1008.21 1008.57 1009.02 1009.53 1010.07 1010.61 1011.11 1011.55 1011.92 1012.20 1012.41 1012.56 1012.69 1012.79 1012.89 1012.99 1013.07 1013.12 1013.12
1015.87 1015.62 1015.25 1014.76 1014.13 1013.40 1012.56 1011.67 1010.77 1009.90 1009.11 1008.43 1007.89 1007.49 1007.23 1007.07 1007.00 1006.98 1006.99 1007.01 1007.04 1007.09 1007.17 1007.31 1007.52 1007.81 1008.19 1008.64 1009.14 1009.66 1010.17 1010.64 1011.04 1011.37 1011.63 1011.82 1011.98 1012.11 1012.23 1012.36 1012.47 1012.57 1012.63 1012.62
1015.37 1014.97 1014.47 1013.89 1013.22 1012.47 1011.66 1010.82 1009.99 1009.20 1008.49 1007.89 1007.42 1007.06 1006.82 1006.68 1006.61 1006.58 1006.58 1006.60 1006.64 1006.70 1006.80 1006.96 1007.19 1007.49 1007.87 1008.31 1008.78 1009.26 1009.72 1010.13 1010.48 1010.77 1010.99 1011.18 1011.33 1011.48 1011.62 1011.77 1011.90 1012.01 1012.08 1012.07
1014.56 1014.04 1013.47 1012.85 1012.17 1011.45 1010.71 1009.96 1009.22 1008.54 1007.92 1007.40 1006.98 1006.66 1006.43 1006.29 1006.21 1006.18 1006.18 1006.20 1006.25 1006.34 1006.47 1006.66 1006.91 1007.22 1007.59 1008.00 1008.42 1008.84 1009.24 1009.59 1009.88 1010.12 1010.33 1010.50 1010.67 1010.83 1011.00 1011.18 1011.34 1011.46 1011.53 1011.52
1013.56 1012.99 1012.39 1011.77 1011.13 1010.47 1009.81 1009.15 1008.52 1007.93 1007.40 1006.93 1006.54 1006.24 1006.01 1005.86 1005.76 1005.72 1005.72 1005.76 1005.84 1005.96 1006.13 1006.35 1006.62 1006.95 1007.30 1007.68 1008.06 1008.42 1008.74 1009.03 1009.27 1009.48 1009.67 1009.85 1010.04 1010.24 1010.44 1010.65 1010.84 1010.98 1011.06 1011.05
1012.55 1011.98 1011.40 1010.82 1010.24 1009.65 1009.07 1008.50 1007.94 1007.41 1006.92 1006.47 1006.09 1005.77 1005.52 1005.33 1005.22 1005.17 1005.17 1005.24 1005.36 1005.53 1005.75 1006.02 1006.33 1006.66 1007.01 1007.36 1007.69 1008.00 1008.27 1008.50 1008.71 1008.90 1009.09 1009.29 1009.51 1009.75 1010.00 1010.25 1010.47 1010.63 1010.73 1010.72
Thickness
5728 5718 5712 5718 5725 5726 5722 5717 5716 5724 5737 5729 5723 5724 5731 5734 5732 5729 5725 5722 5719 5719 5721 5720 5717 5714 5710 5705 5701 5697 5694 5691 5687 5684 5680 5677 5675 5674 5673 5671 5670 5668 5667 5667
5712 5711 5724 5729 5728 5725 5721 5715 5716 5726 5734 5728 5721 5722 5730 5733 5731 5731 5728 5723 5721 5719 5718 5717 5715 5711 5707 5704 5700 5696 5692 5689 5686 5682 5679 5676 5673 5671 5670 5668 5667 5666 5664 5663
5708 5718 5730 5727 5721 5718 5717 5716 5718 5720 5724 5725 5720 5716 5723 5730 5733 5733 5731 5728 5724 5721 5717 5715 5713 5710 5706 5702 5699 5697 5692 5689 5686 5682 5679 5676 5672 5670 5667 5665 5664 5663 5662 5661
5711 5722 5726 5722 5720 5720 5712 5727 5726 5722 5710 5702 5710 5692 5714 5721 5725 5729 5728 5725 5723 5723 5720 5715 5712 5709 5706 5703 5700 5696 5692 5689 5686 5682 5678 5673 5669 5665 5664 5661 5660 5661 5660 5659
5709 5718 5720 5718 5724 5726 5722 5728 5723 5718 5707 5697 5701 5692 5702 5717 5719 5725 5728 5726 5725 5723 5720 5717 5714 5711 5708 5705 5701 5697 5693 5689 5686 5682 5678 5673 5669 5666 5663 5662 5660 5659 5658 5658
5712 5722 5726 5726 5731 5731 5725 5716 5707 5698 5692 5684 5696 5689 5695 5706 5720 5727 5730 5729 5727 5724 5721 5718 5716 5712 5708 5705 5701 5697 5693 5690 5686 5683 5678 5674 5670 5666 5663 5661 5659 5657 5656 5656
5705 5715 5726 5731 5722 5722 5718 5700 5682 5680 5670 5677 5694 5690 5697 5721 5727 5730 5732 5730 5728 5725 5720 5717 5714 5711 5708 5705 5701 5697 5693 5690 5687 5683 5679 5675 5671 5667 5664 5661 5658 5656 5654 5654
5693 5697 5719 5727 5724 5716 5711 5704 5682 5672 5668 5675 5689 5687 5708 5729 5734 5736 5735 5732 5728 5724 5721 5718 5715 5712 5708 5706 5702 5698 5694 5690 5688 5684 5680 5677 5673 5669 5665 5662 5659 5656 5654 5653
5693 5698 5722 5730 5732 5722 5706 5699 5699 5679 5677 5672 5680 5695 5715 5731 5732 5733 5732 5729 5726 5724 5722 5719 5717 5713 5710 5707 5704 5700 5696 5692 5689 5685 5682 5678 5675 5671 5667 5664 5661 5658 5656 5655
5706 5699 5715 5726 5727 5721 5715 5699 5684 5676 5667 5665 5676 5686 5696 5719 5725 5728 5727 5726 5726 5725 5723 5721 5718 5715 5712 5709 5706 5702 5698 5694 5690 5687 5683 5680 5676 5672 5669 5666 5662 5660 5657 5656
5711 5699 5705 5715 5715 5712 5705 5697 5684 5671 5672 5661 5663 5682 5715 5722 5728 5728 5728 5729 5728 5726 5724 5722 5720 5717 5714 5710 5706 5702 5699 5695 5692 5688 5684 5681 5677 5674 5670 5667 5664 5661 5658 5656
5709 5696 5691 5706 5721 5725 5719 5706 5691 5681 5674 5665 5662 5681 5726 5727 5730 5731 5731 5731 5731 5729 5727 5724 5721 5717 5713 5710 5707 5703 5700 5696 5693 5690 5686 5682 5678 5675 5671 5668 5665 5662 5659 5658
5709 5695 5685 5690 5700 5714 5713 5705 5698 5685 5670 5659 5663 5689 5726 5728 5731 5732 5732 5732 5730 5729 5727 5723 5720 5716 5713 5710 5708 5704 5701 5698 5695 5690 5686 5682 5679 5675 5672 5669 5666 5664 5661 5659
5714 5697 5690 5686 5693 5705 5707 5705 5696 5689 5674 5668 5674 5693 5717 5726 5729 5732 5732 5732 5730 5728 5726 5723 5719 5716 5714 5711 5708 5705 5702 5699 5695 5691 5687 5683 5680 5676 5673 5670 5667 5665 5662 5660
5714 5700 5702 5703 5708 5709 5709 5708 5700 5696 5692 5685 5694 5697 5716 5726 5730 5733 5734 5732 5730 5728 5726 5724 5721 5717 5714 5711 5708 5706 5703 5700 5696 5692 5687 5684 5681 5677 5674 5671 5668 5666 5663 5661
5708 5702 5703 5703 5709 5707 5706 5710 5705 5702 5702 5698 5703 5707 5728 5732 5732 5732 5732 5732 5729 5729 5728 5726 5723 5719 5716 5713 5710 5706 5703 5700 5696 5692 5688 5685 5681 5678 5674 5671 5669 5666 5664 5661
5699 5697 5691 5686 5696 5702 5696 5711 5710 5709 5711 5709 5705 5719 5733 5731 5732 5734 5734 5733 5732 5732 5731 5728 5725 5722 5719 5716 5712 5707 5704 5700 5695 5692 5688 5685 5681 5678 5675 5672 5669 5666 5664 5661
5697 5690 5680 5679 5689 5682 5703 5724 5722 5717 5720 5719 5724 5729 5732 5735 5738 5740 5739 5736 5735 5734 5732 5730 5727 5723 5721 5717 5713 5709 5704 5699 5695 5691 5688 5685 5681 5678 5675 5671 5669 5666 5664 5661
5701 5689 5674 5669 5673 5680 5704 5721 5720 5714 5718 5729 5726 5731 5733 5734 5735 5735 5742 5741 5740 5738 5736 5733 5729 5725 5721 5717 5713 5707 5702 5698 5694 5690 5687 5684 5681 5677 5674 5671 5669 5666 5664 5662
5691 5687 5674 5665 5672 5673 5701 5726 5728 5722 5714 5734 5732 5731 5728 5727 5717 5728 5743 5743 5740 5738 5735 5731 5728 5724 5719 5716 5711 5706 5700 5696 5693 5691 5688 5685 5681 5677 5674 5671 5669 5666 5663 5662
5683 5675 5669 5663 5666 5679 5711 5723 5724 5702 5709 5737 5735 5733 5727 5727 5731 5739 5742 5741 5739 5736 5733 5729 5725 5721 5717 5714 5709 5703 5699 5695 5694 5691 5687 5684 5680 5677 5674 5671 5668 5665 5663 5661
5678 5670 5665 5658 5662 5678 5719 5717 5711 5716 5732 5736 5735 5734 5731 5732 5735 5737 5737 5736 5734 5731 5728 5725 5720 5716 5713 5710 5706 5701 5697 5696 5693 5689 5685 5682 5679 5676 5674 5669 5666 5664 5661 5659
5676 5680 5676 5677 5688 5708 5715 5717 5724 5726 5727 5732 5733 5735 5733 5730 5731 5732 5731 5730 5728 5726 5723 5720 5716 5711 5707 5704 5702 5698 5696 5693 5689 5685 5682 5679 5676 5673 5670 5667 5664 5661 5659 5656
5680 5682 5678 5678 5693 5706 5712 5716 5721 5724 5725 5730 5732 5732 5731 5729 5729 5727 5725 5723 5722 5720 5717 5714 5710 5706 5702 5699 5697 5696 5693 5690 5686 5681 5678 5674 5671 5669 5666 5664 5661 5658 5656 5653
5680 5676 5674 5678 5691 5701 5713 5716 5720 5723 5725 5726 5728 5728 5728 5727 5725 5723 5721 5719 5717 5715 5711 5708 5705 5701 5698 5695 5692 5691 5688 5685 5680 5677 5673 5670 5667 5664 5662 5660 5657 5655 5654 5651
5674 5673 5671 5677 5692 5691 5702 5714 5716 5716 5719 5721 5722 5723 5724 5723 5721 5719 5716 5715 5712 5708 5705 5701 5698 5696 5693 5690 5687 5685 5683 5680 5676 5671 5668 5664 5662 5659 5656 5654 5652 5651 5649 5648